Miscellaneous Local Product
Issued by NWS Hastings, NE

Home | Current Version | Previous Version | Graphics & Text | Print | Product List | Glossary On
Versions: 1 2 3 4 5 6 7 8 9 10 11 12 13 14 15 16 17 18 19 20 21 22 23 24 25 26 27 28 29 30 31 32 33 34 35 36 37 38 39 40 41 42 43 44 45 46 47 48 49 50
007
AXUS43 KGID 230602
MISGRI

GID CWA HOURLY WEATHER ROUNDUP
NATIONAL WEATHER SERVICE HASTINGS NE
1200 AM CST THU FEB 23 2017

NOTE: "FAIR" INDICATES FEW OR NO CLOUDS BELOW 12,000 FEET WITH NO
SIGNIFICANT WEATHER AND/OR OBSTRUCTIONS TO VISIBILITY.

...SOUTH CENTRAL NEBRASKA...

CITY           SKY/WX    TMP DP  RH WIND       PRES   REMARKS
GRAND ISLAND   CLEAR     35  31  85 NE9       29.79R WCI  28
HASTINGS       CLEAR     43  32  65 NE10      29.77S
KEARNEY        CLEAR     39  28  65 NE13      29.77S WCI  32
ORD            CLEAR     41  34  76 N12       29.78F
YORK           CLEAR     41  34  75 NE12      29.79R
AURORA         CLEAR     38  32  79 NE10      29.78R WCI  31
LEXINGTON      CLEAR     41  30  66 NE10      29.77R
HOLDREGE       CLEAR     40  29  65 NE13      29.74F WCI  33
HEBRON         CLEAR     44  33  64 E6        29.75F

...NEBRASKA PANHANDLE...

CITY           SKY/WX    TMP DP  RH WIND       PRES   REMARKS
CHADRON        CLOUDY    34  28  79 NE15      29.86F WCI  24
ALLIANCE       LGT SNOW  34  30  85 N18       29.79F FOG     WCI  23
SCOTTSBLUFF    LGT RAIN  36  32  85 NE14      29.80F WCI  27
SIDNEY         MOCLDY    38  27  64 NE15      29.76F WCI  29

...WESTERN AND NORTH CENTRAL NEBRASKA...

CITY           SKY/WX    TMP DP  RH WIND       PRES   REMARKS
VALENTINE      CLOUDY    34  29  82 N13       29.89S WCI  25
AINSWORTH      CLOUDY    34  33  95 N17       29.85F WCI  24
ONEILL         CLOUDY    39  38  93 N18       29.84F WCI  30
BROKEN BOW     CLEAR     41  35  79 N20G28    29.77F
IMPERIAL       CLEAR     38  23  55 NE10      29.74R WCI  31
NORTH PLATTE   CLEAR     40  33  76 NE15      29.75F WCI  32
MCCOOK         CLEAR     40  28  62 NE12      29.72S WCI  33

...EASTERN NEBRASKA...

CITY           SKY/WX    TMP DP  RH WIND       PRES   REMARKS
NORFOLK        PTCLDY    41  36  82 N13       29.82R
SO SIOUX CITY  CLOUDY    44  37  76 N17       29.82S
TEKAMAH        PTCLDY    42  37  82 N10       29.81S
COLUMBUS       CLEAR     41  36  81 NE10      29.79F
ALBION         CLOUDY    42  37  80 N20G28    29.80F
OMAHA EPPLEY   CLEAR     43  36  76 N9        29.79F
MILLARD        CLEAR     51  41  70 CALM      29.79S
LINCOLN        CLEAR     46  38  73 NE13      29.78S
NEBRASKA CITY  CLEAR     49  35  59 NE12      29.77F
BEATRICE       CLEAR     48  38  66 NE9       29.75R
FALLS CITY     PTCLDY    52  39  61 NE13      29.74S

...NORTHERN KANSAS...

CITY           SKY/WX    TMP DP  RH WIND       PRES   REMARKS
GOODLAND       CLOUDY    41  22  46 E13       29.67F
HILL CITY      CLOUDY    48  30  49 E13       29.71S
NORTON         CLEAR     37  25  60 NE9       29.70F WCI  31
PHILLIPSBURG   CLEAR     48  30  49 NE12G17   29.72S
SMITH CENTER   CLEAR     46  30  53 NE17G24   29.72S
HAYS             N/A     51  29  42 NE17      29.68R
RUSSELL        CLOUDY    50  31  48 NE13      29.67S
CONCORDIA      PTCLDY    51  33  50 NE9       29.72F
SALINA         MOCLDY    57  34  41 NE12      29.68F
TOPEKA         PTCLDY    52  40  63 E3        29.73R



USA.gov is the U.S. government's official web portal to all federal, state and local government web resources and services.